538  
ASHW40 PHFO 241912  
RWRHI  
 
WEATHER ROUNDUP FOR HAWAII  
NATIONAL WEATHER SERVICE HONOLULU HI  
900 AM HST TUE JAN 24 2017  
 
THIS IS AN AUTOMATED REPORT THAT HAS NOT BEEN QUALITY CONTROLLED.  
 
NOTE..."FAIR" INDICATES FEW OR NO CLOUDS BELOW 12,000 FEET WITH NO  
SIGNIFICANT WEATHER AND/OR S TO VISIBILITY
.  
 
* - THESE SITES REPORT LIMITED FIELDS  
 
HIZ001>004-242000-  
KAUAI-NIIHAU-  
 
CITY SKY/WX TMP DP RH WIND PRES REMARKS
 
LIHUE APT CLOUDY 75 69 81 NE13 30.15R  
PORT ALLEN* N/A 70 N/A N/A NE7 N/A  
POIPU* N/A 73 N/A N/A NE7G14 N/A  
PRINCEVILLE* NOT AVBL  
KOKOLE POINT* NOT AVBL  
MOLOAA DAIRY* N/A 75 66 73 E5G12 N/A  
WAIMEA HTS* NOT AVBL  
PUU OPAE* NOT AVBL  
PUU LUA* NOT AVBL  
MAKAHA RIDGE* NOT AVBL  

 
 
HIZ005>011-242000-  
OAHU-  
 
CITY SKY/WX TMP DP RH WIND PRES REMARKS
 
HONOLULU MOSUNNY 74 68 81 N5 30.13R  
KALAELOA MOSUNNY 77 67 71 NE6 30.14R  
KANEOHE MCB CLOUDY 72 71 97 E6 30.11R  
WHEELER FIELD PTSUNNY 71 68 90 CALM 30.13R  
BELLOWS* NOT AVBL  
KAHUKU* NOT AVBL  
WHEELER* NOT AVBL  
WAIANAE HARBOR NOT AVBL  
DILLINGHAM* N/A 73 68 83 MISG N/A  
KAHUKU TRN* N/A 70 68 94 W9G18 N/A  
KAWAILOA* N/A 68 64 88 E3G9 N/A  
KII* N/A 73 68 83 E15G21 N/A  
MAKUA RANGE* N/A 75 68 78 NW2G8 N/A  
OAHU FOREST NW NOT AVBL  
SCHOFIELD BRK* N/A 73 66 78 E1 N/A  
SCHOFIELD S* NOT AVBL  
WAIANAE VLY* NOT AVBL  
KUAOKALA* NOT AVBL  
HONOULIUULI* NOT AVBL  
MOKUOLOE IS* NOT AVBL  
PALEHUA* NOT AVBL  
WAIAWA PHB* NOT AVBL  

 
 
HIZ012>013-242000-  
MOLOKAI-  
 
CITY SKY/WX TMP DP RH WIND PRES REMARKS
 
MOLOKAI AIRPT MOSUNNY 74 66 76 NE13G22 30.12F  
KALAUPAPA NOT AVBL  
MAKAPULAPAI* NOT AVBL  
MOLOKAI 1* NOT AVBL  
PUU ALII* NOT AVBL  

 
 
HIZ016-242000-  
KAHOOLAWE-  
 
CITY SKY/WX TMP DP RH WIND PRES REMARKS
 
KAHOOLAWE* NOT AVBL  
HAKIOAWA* NOT AVBL  
HONOKANAIA* N/A 74 66 76 NE12G18 30.06R  
KANELOA* N/A 72 68 88 E12G23 30.18R  
KEALIALALO* NOT AVBL  
LUA MAKIKA* NOT AVBL  

 
 
HIZ014>015-242000-  
LANAI-  
 
CITY SKY/WX TMP DP RH WIND PRES REMARKS
 
LANAI CITY MOSUNNY 68 64 88 SE8 30.17  
LANAI 1* NOT AVBL  

 
 
HIZ017>028-242000-  
MAUI-  
 
CITY SKY/WX TMP DP RH WIND PRES REMARKS
 
KAHULUI MOSUNNY 77 65 66 E14G24 30.12R  
KAPALUA-W MAUI MOSUNNY 73 64 73 NE14 30.13R  
HANA AIRPORT CLOUDY 72 68 88 E3 30.17R  
HANA* N/A 72 N/A N/A E5G10 N/A  
HALEAKALA SUMM N/A 45 14 29 NW5 N/A  
MAALAEA BAY* NOT AVBL  
HALEAKALA* NOT AVBL  
KAUPO GAP* NOT AVBL  
KULA 1* N/A N/A N/A N/A E3 N/A  

 
 
HIZ023>026-242000-  
BIG ISLAND OF HAWAII COAST AND LOWER SLOPES-  
 
CITY SKY/WX TMP DP RH WIND PRES REMARKS
 
KAILUA KONA MOSUNNY 78 57 48 SE9 30.08S  
HILO LGT RAIN 69 68 96 W3 30.13S FOG  
HONOKAA* N/A 64 N/A N/A VRB1 N/A  
KAWAIHAE MWT* NOT AVBL  
KAWAIHAE* N/A 75 N/A N/A W2 30.09S  
SOUTH POINT* N/A 70 N/A N/A N9 N/A  
UPOLU AIRPORT* NOT AVBL  
KAMUELA* CLOUDY 64 63 94 NE13 30.20R  
HAKALAU* N/A 52 52 99 S2 N/A  
KALOKO-HONOKO* NOT AVBL  
PALI 2* N/A 64 63 94 SE1G8 N/A  
KEALAKOMO* N/A 72 68 88 N13G18 N/A  
KAUPULEHU* NOT AVBL  
KAPAPALA* NOT AVBL  
LOWER KAHUKU* NOT AVBL  
PUHE CS* NOT AVBL  
PUHO CS* NOT AVBL  
PTA KEAMUKU* N/A 66 55 68 CALM N/A  
WAIKOLOA* NOT AVBL  

 
 
HIZ027>028-242000-  
BIG ISLAND OF HAWAII INTERIOR AND SUMMMITS-  
 
CITY SKY/WX TMP DP RH WIND PRES REMARKS
 
BRADSHAW FIELD MOSUNNY 60 41 49 CALM 30.40R  
MK VISITOR CEN N/A 48 34 57 SE1 N/A  
MAUNA KEA* N/A 30 -4 22 SW3 N/A  
MAUNA LOA* NOT AVBL  
MAUNA LOA 1* NOT AVBL  
PTA KIPUKA* N/A 68 55 64 W2 N/A  
PTA RANGE 17* N/A 59 46 63 SE3G12 N/A  
PTA WEST* N/A 48 36 61 SE7 N/A  
NENE CABIN* NOT AVBL  
AHUMOA* NOT AVBL  
PTA PORTABLE* NOT AVBL  
PUU MALI* N/A 61 N/A N/A SW2 N/A  

 
 
HIC003-242000-  
NORTHWEST ISLANDS-  
 
CITY SKY/WX TMP DP RH WIND PRES REMARKS
 
MIDWAY ISLAND PTCLDY 72 68 88 SW9 30.12R  
MIDWAY NOS* NOT AVBL  
FRENCH FRIGATE NOT AVBL  

 
 
PHZ110>124-180-242000-  
BUOY REPORTS  
 
STATION/POSITION TIME TEMP WIND PRES WAVE SWELL
 
AIR SEA DIR/SP/G HT/PER HT/DIR  
(UTC) (F) (DEG/KT/KT) (MB) (FT/S) (FT/D)  
BUOY 51001 1850 73 73 70/ 14/ 17 1022.4R 8/10 7/110  
BUOY 51101 1850 73 75 60/ 12/ 16 1022.7R 8/10 8/ 90  
BUOY 51100 NOT AVBL  
BUOY 51002 1850 75 77 70/ 17/ 21 1018.0R 10/10 7/ 80  
BUOY 51003 1850 77 78 60/ 10/ 12 1019.4R 7/10 7/ 30  
BUOY 51004 1750 77 60/ 17/ 21 1017.6 10/10 8/ 80  
BARBERS PT BUOY NOT AVBL  
WAIMEA BAY BUOY 1802 74 N/A 5/10 3/ 30  
KAILUA BAY BUOY 1834 76 N/A 7/11 3/ 50  
LANAI BUOY 1845 77 N/A 2/13 2/220  
BARBERS PT 2 1839 77 N/A 5/ 9 2/150  
PAUWELA MAUI 1839 75 N/A 8/10 5/ 60  
HILO 1842 75 N/A 10/10 5/ 40  
KANEOHE BAY BUOY 1836 75 N/A 7/11 3/ 20  
HANALEI KAUAI 1852 76 N/A 8/10 3/ 70  
KAHULUI HARBOR 1842 74 74 350/ 4/ 7 1020.0R  
HONOLULU HARBOR 1848 76 330/ 2/ 3 1020.9R  
KILO NALU NOT AVBL  
HILO HARBOR 1848 73 290/ 4/ 5 1020.0R  
MOKUOLOE 1836 73 73 100/ 9/ 12 1020.2R  
NAWILIWILI 1848 72 70/ 11/ 12 1020.6R  
WHOTS BUOY NOT AVBL  
BUOY 51028 NOT AVBL  

 
   
.....................KEY.....................................
 
 
SKY/WX - SKY CONDITIONS/PRESENT WEATHER  
TMP - TEMPERATURE IN FAHRENHEIT  
DWPT - DEWPOINT IN FAHRENHEIT  
RH - RELATIVE HUMIDITY IN PERCENT  
WIND - DIRECTION AND SPEED /MPH FOR ISLANDS...KTS FOR BUOYS/  
PRES - MEAN SEA LEVEL PRESSURE IN INCHES OF HG  
VSB - VISIBILITY IN MILES  
HX - HEAT INDEX  
WCI - WIND CHILL INDEX  
VRB - VARIABLE WIND DIRECTION  
N/A - NOT AVAILABLE  
 
 
CLICK HERE TO GO TO PREVIOUS BULLETINS.

The Nexlab HI Page Main Text Page